Location: Blue Mountain Vista Observatory
(40.6992°N, 75.9422°W)
Time: 15:52:23
(UTC-04:00)

Amateur Radio Satellites - All Passes

Search period start: 19 September 2014 15:22
Search period end: 20 September 2014 15:22
Location: Blue Mountain Vista Observatory, 40.6992°N, 75.9422°W

Satellite Date Start Highest point End Downlink Frequencies (MHz)
Time Altitude Azimuth
AO-Echo 19 Sep 15:52:35 15:54:12 12° 270° (W) 15:55:49 ?
JAS-1B 19 Sep 15:58:57 16:05:23 23° 266° (W) 16:11:08 435.800 - 435.900 CW/SSB
Gurwin Techsat 1B 19 Sep 16:05:01 16:09:22 26° 266° (W) 16:13:44 435.225 FM
AO-7 19 Sep 16:28:27 16:36:47 89° 252° (WSW) 16:45:08 29.400 - 29.500 MHz
Saudisat 1A 19 Sep 16:30:48 16:33:29 16° 110° (ESE) 16:36:12 436.775 MHz
TMSAT-1 19 Sep 16:43:41 16:46:47 16° 269° (W) 16:49:55 436.925 FM
JAS-2 19 Sep 16:53:08 16:56:41 19° 63° (ENE) 17:00:13 435.800 - 435.900 CW/SSB, 435.910 FM
Uosat F 19 Sep 16:58:28 17:03:21 56° 259° (W) 17:08:17 435.120 FM
MaSat-1 19 Sep 17:07:19 17:09:07 13° 47° (NE) 17:10:48 437.345 MHz
OPAL 19 Sep 17:59:32 18:04:44 81° 106° (ESE) 18:09:50 ?
Saudisat 1A 19 Sep 18:08:21 18:12:38 52° 306° (NW) 18:16:58 436.775 MHz
Hamsat 19 Sep 18:10:54 18:15:16 90° 77° (ENE) 18:19:39 145.90 MHz
AO-7 19 Sep 18:25:31 18:30:34 17° 270° (W) 18:35:38 29.400 - 29.500 MHz
JAS-2 19 Sep 18:36:18 18:41:26 51° 260° (W) 18:46:29 435.800 - 435.900 CW/SSB, 435.910 FM
KITSAT 1 19 Sep 18:41:22 18:48:00 29° 106° (ESE) 18:54:39 435.175 FM
STRAND 1 19 Sep 18:41:52 18:44:39 15° 91° (E) 18:47:26 ?
MaSat-1 19 Sep 18:42:40 18:46:20 49° 250° (WSW) 18:49:27 437.345 MHz
HO-68 19 Sep 19:22:29 19:26:32 16° 53° (NE) 19:30:35 435.675 MHz FM
OPAL 19 Sep 19:40:21 19:42:54 14° 303° (WNW) 19:45:26 ?
SO-67 19 Sep 19:44:01 19:47:22 48° 261° (W) 19:50:44 435.3500 MHz FM
AO-40 19 Sep 20:06:05 00:33:00 38° 188° (S) 05:58:02 Beacon 2401.320
STRAND 1 19 Sep 20:19:11 20:24:16 65° 287° (WNW) 20:29:21 ?
Sapphire 19 Sep 20:27:26 20:31:21 20° 45° (NE) 20:35:15 437.095 MHz 1200 baud AX-25 AFSK
KITSAT 1 19 Sep 20:34:50 20:42:50 64° 305° (NW) 20:50:53 435.175 FM
PCSat 19 Sep 20:53:57 20:58:47 32° 51° (NE) 21:03:36 145.825 MHz
HO-68 19 Sep 21:06:01 21:13:09 81° 72° (ENE) 21:20:19 435.675 MHz FM
FUNcube-1 19 Sep 21:13:17 21:14:34 11° 61° (ENE) 21:15:51 145.950 - 145.970 MHz USB
Oscar 11 19 Sep 21:20:25 21:24:15 31° 70° (ENE) 21:28:07 145.825 FM, Beacon 2401.500 USB
UKube-1 19 Sep 21:36:41 21:40:58 69° 74° (ENE) 21:45:18 145.840 MHz, 145.915 MHz
SO-50 19 Sep 22:01:52 22:05:43 29° 113° (ESE) 22:09:38 436.795 FM
Sapphire 19 Sep 22:09:55 22:15:20 71° 244° (WSW) 22:20:43 437.095 MHz 1200 baud AX-25 AFSK
KITSAT 1 19 Sep 22:34:36 22:40:00 19° 329° (NNW) 22:45:25 435.175 FM
PCSat 19 Sep 22:37:15 22:42:15 38° 249° (WSW) 22:47:12 145.825 MHz
FUNcube-1 19 Sep 22:45:53 22:50:16 76° 258° (WSW) 22:54:48 145.950 - 145.970 MHz USB
Oscar 11 19 Sep 22:57:00 23:00:27 23° 266° (W) 23:03:56 145.825 FM, Beacon 2401.500 USB
HO-68 19 Sep 22:57:05 23:01:35 18° 269° (W) 23:06:07 435.675 MHz FM
UKube-1 19 Sep 23:17:24 23:17:37 10° 270° (W) 23:17:50 145.840 MHz, 145.915 MHz
UOSAT-12 19 Sep 23:39:10 23:42:51 24° 112° (ESE) 23:46:36 437.025 FM, 437.400 FM
SO-50 19 Sep 23:42:08 23:46:11 32° 311° (NW) 23:50:20 436.795 FM
Saudisat 1A 20 Sep 00:56:50 00:59:33 16° 41° (NE) 01:02:16 436.775 MHz
UOSAT-12 20 Sep 01:18:25 01:22:46 40° 309° (NW) 01:27:14 437.025 FM, 437.400 FM
Oscar 19 20 Sep 01:29:19 01:32:22 16° 91° (E) 01:35:23 437.125 CW, 437.150 USB
ISS 20 Sep 01:40:22 01:41:37 12° 129° (SE) 01:42:51 145.800 FM
JAS-1B 20 Sep 01:54:10 01:56:56 14° 90° (E) 01:59:42 435.800 - 435.900 CW/SSB
Oscar 16 20 Sep 02:06:50 02:11:38 37° 98° (E) 02:16:23 437.025 USB, Beacon 2401.1428
AO-Echo 20 Sep 02:18:02 02:21:50 22° 94° (E) 02:25:41 ?
PANSAT 20 Sep 02:20:18 02:21:31 11° 171° (S) 02:22:43 not established
KITSAT 1 20 Sep 02:33:48 02:39:07 18° 31° (NNE) 02:44:24 435.175 FM
Saudisat 1A 20 Sep 02:35:13 02:39:38 73° 240° (WSW) 02:44:01 436.775 MHz
Gurwin Techsat 1B 20 Sep 02:42:03 02:45:14 16° 91° (E) 02:48:24 435.225 FM
Oscar 10/S400 20 Sep 02:48:33 03:58:17 30° 239° (WSW) 07:37:13 145.825 - 145.975 CW/USB, Beacon 145.810 USB
ITAMSAT 1 20 Sep 02:50:45 02:55:39 40° 98° (E) 03:00:32 435.822 SSB
Uribyol 2 20 Sep 02:54:48 02:59:50 46° 99° (E) 03:04:51 436.500 FM
Oscar 19 20 Sep 03:07:00 03:12:07 61° 287° (WNW) 03:17:09 437.125 CW, 437.150 USB
ISS 20 Sep 03:14:33 03:17:53 77° 323° (NW) 03:21:13 145.800 FM
RS-15 20 Sep 03:15:27 03:24:19 29° 104° (ESE) 03:33:01 29.354 - 29.394 USB, Beacon 29.352 USB
TMSAT-1 20 Sep 03:17:57 03:22:20 26° 94° (E) 03:26:41 436.925 FM
AO-27 20 Sep 03:25:39 03:30:53 87° 104° (ESE) 03:36:07 436.795 MHz FM
OPAL 20 Sep 03:37:23 03:40:54 19° 60° (ENE) 03:44:26 ?
JAS-1B 20 Sep 03:42:35 03:48:18 68° 287° (WNW) 03:53:59 435.800 - 435.900 CW/SSB
Oscar 16 20 Sep 03:46:31 03:50:47 27° 294° (WNW) 03:55:02 437.025 USB, Beacon 2401.1428
AO-Echo 20 Sep 03:56:12 04:00:42 39° 290° (WNW) 04:05:19 ?
PANSAT 20 Sep 03:59:09 04:00:55 13° 184° (S) 04:02:42 not established
Gurwin Techsat 1B 20 Sep 04:20:22 04:25:37 63° 287° (WNW) 04:30:51 435.225 FM
KITSAT 1 20 Sep 04:28:19 04:36:20 62° 55° (NE) 04:44:17 435.175 FM
ITAMSAT 1 20 Sep 04:30:42 04:34:55 26° 295° (WNW) 04:39:09 435.822 SSB
AO-7 20 Sep 04:30:59 04:38:09 31° 96° (E) 04:45:15 29.400 - 29.500 MHz
Uribyol 2 20 Sep 04:35:00 04:38:59 23° 296° (WNW) 04:42:57 436.500 FM
ISS 20 Sep 04:52:39 04:55:02 18° 343° (NNW) 04:57:25 145.800 FM
TMSAT-1 20 Sep 04:57:26 05:02:20 39° 291° (WNW) 05:07:13 436.925 FM
Uosat F 20 Sep 05:06:24 05:11:14 45° 99° (E) 05:16:02 435.120 FM
AO-27 20 Sep 05:07:29 05:09:39 13° 301° (WNW) 05:11:50 436.795 MHz FM
OPAL 20 Sep 05:14:11 05:19:17 60° 257° (WSW) 05:24:28 ?
RS-15 20 Sep 05:24:31 05:35:34 75° 305° (NW) 05:46:33 29.354 - 29.394 USB, Beacon 29.352 USB
JAS-2 20 Sep 05:44:26 05:48:59 21° 94° (E) 05:53:53 435.800 - 435.900 CW/SSB, 435.910 FM
STRAND 1 20 Sep 05:57:19 06:01:07 22° 64° (ENE) 06:04:56 ?
Hamsat 20 Sep 05:58:18 06:00:57 16° 92° (E) 06:03:35 145.90 MHz
AO-7 20 Sep 06:23:13 06:31:16 58° 294° (WNW) 06:39:18 29.400 - 29.500 MHz
KITSAT 1 20 Sep 06:24:29 06:31:12 30° 254° (WSW) 06:37:53 435.175 FM
ISS 20 Sep 06:31:11 06:32:46 13° 3° (N) 06:34:22 145.800 FM
SO-50 20 Sep 06:33:12 06:37:23 29° 47° (NE) 06:41:36 436.795 FM
Uosat F 20 Sep 06:45:56 06:49:42 22° 296° (WNW) 06:53:26 435.120 FM
SO-67 20 Sep 07:09:49 07:10:52 11° 91° (E) 07:11:54 435.3500 MHz FM
JAS-2 20 Sep 07:28:21 07:34:18 63° 287° (WNW) 07:41:02 435.800 - 435.900 CW/SSB, 435.910 FM
Hamsat 20 Sep 07:33:06 07:37:06 41° 288° (WNW) 07:41:03 145.90 MHz
STRAND 1 20 Sep 07:35:07 07:39:59 46° 261° (W) 07:44:53 ?
RS-15 20 Sep 07:41:17 07:50:07 27° 333° (NNW) 07:59:02 29.354 - 29.394 USB, Beacon 29.352 USB
ISS 20 Sep 08:07:34 08:10:23 25° 23° (NNE) 08:13:12 145.800 FM
UOSAT-12 20 Sep 08:08:32 08:12:18 23° 45° (NE) 08:16:02 437.025 FM, 437.400 FM
SO-50 20 Sep 08:13:34 08:18:02 38° 245° (WSW) 08:22:31 436.795 FM
AO-7 20 Sep 08:18:56 08:22:18 13° 315° (NW) 08:25:39 29.400 - 29.500 MHz
MaSat-1 20 Sep 08:26:30 08:31:27 63° 112° (ESE) 08:36:20 437.345 MHz
HO-68 20 Sep 08:36:29 08:40:07 14° 89° (E) 08:43:44 435.675 MHz FM
SO-67 20 Sep 08:40:50 08:44:04 38° 286° (WNW) 08:47:17 435.3500 MHz FM
UKube-1 20 Sep 09:27:23 09:29:00 12° 91° (E) 09:30:36 145.840 MHz, 145.915 MHz
ISS 20 Sep 09:44:01 09:47:16 51° 221° (SW) 09:50:29 145.800 FM
UOSAT-12 20 Sep 09:48:09 09:52:43 49° 243° (WSW) 09:57:11 437.025 FM, 437.400 FM
RS-15 20 Sep 10:00:17 10:07:48 20° 9° (N) 10:15:26 29.354 - 29.394 USB, Beacon 29.352 USB
MaSat-1 20 Sep 10:05:02 10:08:35 19° 309° (NW) 10:12:04 437.345 MHz
HO-68 20 Sep 10:21:31 10:28:44 86° 106° (ESE) 10:35:56 435.675 MHz FM
FUNcube-1 20 Sep 10:36:01 10:39:39 23° 94° (E) 10:43:15 145.950 - 145.970 MHz USB
Oscar 11 20 Sep 10:43:49 10:48:10 66° 101° (E) 10:52:27 145.825 FM, Beacon 2401.500 USB
UKube-1 20 Sep 11:01:16 11:05:34 60° 287° (WNW) 11:09:51 145.840 MHz, 145.915 MHz
Sapphire 20 Sep 11:10:47 11:13:47 15° 104° (ESE) 11:16:47 437.095 MHz 1200 baud AX-25 AFSK
PCSat 20 Sep 11:35:52 11:40:26 28° 108° (ESE) 11:45:01 145.825 MHz
HO-68 20 Sep 12:10:48 12:15:32 19° 305° (NW) 12:20:17 435.675 MHz FM
FUNcube-1 20 Sep 12:11:54 12:16:06 35° 290° (WNW) 12:20:14 145.950 - 145.970 MHz USB
RS-15 20 Sep 12:14:00 12:24:20 42° 42° (NE) 12:34:58 29.354 - 29.394 USB, Beacon 29.352 USB
Oscar 11 20 Sep 12:22:06 12:23:46 12° 298° (WNW) 12:25:27 145.825 FM, Beacon 2401.500 USB
JAS-1B 20 Sep 12:38:11 12:43:34 20° 60° (ENE) 12:48:25 435.800 - 435.900 CW/SSB
Oscar 19 20 Sep 12:45:37 12:49:40 24° 65° (ENE) 12:53:44 437.125 CW, 437.150 USB
Sapphire 20 Sep 12:51:10 12:56:33 72° 300° (WNW) 13:01:59 437.095 MHz 1200 baud AX-25 AFSK
AO-27 20 Sep 13:06:40 13:09:49 17° 61° (ENE) 13:12:59 436.795 MHz FM
PCSat 20 Sep 13:18:34 13:23:39 41° 306° (NW) 13:28:47 145.825 MHz
Oscar 10/S400 20 Sep 13:21:41 13:32:11 13° 151° (SSE) 13:40:34 145.825 - 145.975 CW/USB, Beacon 145.810 USB
Oscar 16 20 Sep 13:23:22 13:28:23 53° 72° (ENE) 13:33:27 437.025 USB, Beacon 2401.1428
AO-Echo 20 Sep 13:31:05 13:35:03 27° 68° (ENE) 13:39:00 ?
Gurwin Techsat 1B 20 Sep 14:02:34 14:06:50 26° 65° (ENE) 14:11:08 435.225 FM
ITAMSAT 1 20 Sep 14:08:28 14:13:31 59° 72° (ENE) 14:18:36 435.822 SSB
Uribyol 2 20 Sep 14:12:22 14:17:29 68° 73° (ENE) 14:22:39 436.500 FM
Oscar 19 20 Sep 14:23:47 14:28:43 44° 261° (W) 14:33:41 437.125 CW, 437.150 USB
JAS-1B 20 Sep 14:24:50 14:33:33 86° 255° (WSW) 14:40:48 435.800 - 435.900 CW/SSB
RS-15 20 Sep 14:26:22 14:37:18 65° 245° (WSW) 14:48:42 29.354 - 29.394 USB, Beacon 29.352 USB
TMSAT-1 20 Sep 14:38:19 14:43:11 39° 69° (ENE) 14:48:04 436.925 FM
Sapphire 20 Sep 14:38:22 14:40:58 13° 321° (NW) 14:43:34 437.095 MHz 1200 baud AX-25 AFSK
AO-27 20 Sep 14:43:40 14:48:47 65° 258° (WSW) 14:53:57 436.795 MHz FM
Oscar 16 20 Sep 15:04:31 15:08:03 18° 268° (W) 15:11:36 437.025 USB, Beacon 2401.1428
AO-Echo 20 Sep 15:09:36 15:13:45 30° 264° (W) 15:17:52 ?
